Regional Weather Roundup
Issued by NWS Northern Indiana

Home | Current Version | Previous Version | Graphics & Text | Print | Product List | Glossary On
Versions: 1 2 3 4 5 6 7 8 9 10 11 12 13 14 15 16 17 18 19 20 21 22 23 24 25 26 27 28 29 30 31 32 33 34 35 36 37 38 39 40 41 42 43 44 45 46 47 48 49 50
000
ASUS43 KIWX 231801
RWRIWX

KIWX WEATHER ROUNDUP
NATIONAL WEATHER SERVICE NORTHERN INDIANA
200 PM EDT SUN JUL 23 2017

NOTE: "FAIR" INDICATES FEW OR NO CLOUDS BELOW 12,000 FEET WITH NO
SIGNIFICANT WEATHER AND/OR OBSTRUCTIONS TO VISIBILITY.

* THESE STATIONS ARE NOT UNDER NWS QUALITY CONTROL. THEY ALSO MAY NOT
  REPORT WEATHER SUCH AS PRECIPITATION OR FOG.

INZ001>027-231900-
NORTHERN INDIANA

CITY           SKY/WX    TMP DP  RH WIND       PRES   REMARKS
GARY*          MOSUNNY   88  68  51 VRB5      29.80F
SOUTH BEND     CLOUDY    85  72  65 W9        29.80S
6HR MIN TEMP:  72; 6HR MAX TEMP:  85; 6HR PCP: TRACE;

GOSHEN         MOSUNNY   84  69  60 W12       29.80S
6HR MIN TEMP:  71; 6HR MAX TEMP:  84;

MONTICELLO*    CLOUDY    81  76  86 SW5       29.80F
6HR MIN TEMP:  68; 6HR MAX TEMP:  81; 6HR PCP:  0.74;

FORT WAYNE     CLOUDY    83  72  69 W7        29.80F
6HR MIN TEMP:  73; 6HR MAX TEMP:  83;

PERU/GRISSOM   MOSUNNY   80  70  73 NW8       29.79F
6HR MIN TEMP:  75; 6HR MAX TEMP:  81; 6HR PCP: TRACE;


$$
INZ028>050-231900-
CENTRAL INDIANA

CITY           SKY/WX    TMP DP  RH WIND       PRES   REMARKS
LAFAYETTE      PTSUNNY   75  72  90 W5        29.81F
6HR MIN TEMP:  70; 6HR MAX TEMP:  82; 6HR PCP:  0.16;

KOKOMO*        MOSUNNY   82  69  64 W9        29.81F
6HR MIN TEMP:  75; 6HR MAX TEMP:  82; 6HR PCP: TRACE;

MUNCIE*        PTSUNNY   81  73  76 W6        29.81S
6HR MIN TEMP:  74; 6HR MAX TEMP:  81; 6HR PCP:  0.02;

INDIANAPOLIS   PTSUNNY   83  74  74 W14       29.83S
6HR MIN TEMP:  72; 6HR MAX TEMP:  84; 6HR PCP:  0.54;


$$
MIZ043>046-050>051-056>058-064>065-071>073-077>080-231900-
SOUTHWEST LOWER MICHIGAN

CITY           SKY/WX    TMP DP  RH WIND       PRES   REMARKS
BATTLE CREEK   MOSUNNY   83  68  60 W14       29.79F
6HR MIN TEMP:  70; 6HR MAX TEMP:  84;

BENTON HARBOR  SUNNY     82  71  69 W14       29.80S
6HR MIN TEMP:  70; 6HR MAX TEMP:  83;

COLDWATER*     PTSUNNY   82  71  68 W8        29.79F
6HR MIN TEMP:  69; 6HR MAX TEMP:  83;

HILLSDALE*     CLOUDY    81  68  65 W6        29.79F
HOLLAND        PTSUNNY   79  71  76 W10       29.80F
6HR MIN TEMP:  68; 6HR MAX TEMP:  80; 6HR PCP:  0.02;

GRAND RAPIDS   PTSUNNY   81  70  69 W10       29.78F
6HR MIN TEMP:  70; 6HR MAX TEMP:  83; 6HR PCP:  0.03;

KALAMAZOO      PTSUNNY   84  67  56 NW13      29.79F
6HR MIN TEMP:  69; 6HR MAX TEMP:  86;

STURGIS*       MOSUNNY   83  71  66 W9        29.79S
6HR MIN TEMP:  68; 6HR MAX TEMP:  84;

THREE RIVERS*  PTSUNNY   84  70  62 W9        29.79S
6HR MIN TEMP:  68; 6HR MAX TEMP:  84;


$$
OHZ001>008-015>018-024>025-231900-
NORTHWEST OHIO

CITY           SKY/WX    TMP DP  RH WIND       PRES   REMARKS
DEFIANCE       CLOUDY   N/A N/A N/A VRB6      29.79F
FINDLAY        CLOUDY    81  68  64 W9        29.79F
6HR MIN TEMP:  71; 6HR MAX TEMP:  84;

TOLEDO EXPRESS PTSUNNY   80  69  69 SW7       29.79S
6HR MIN TEMP:  69; 6HR MAX TEMP:  81;

TOLEDO METCALF CLOUDY    81  71  71 W10       29.79F
6HR MIN TEMP:  71; 6HR MAX TEMP:  82;

LIMA           CLOUDY    78  72  81 W7        29.80F
6HR MIN TEMP:  71; 6HR MAX TEMP:  81; 6HR PCP: TRACE;


$$
AND FOR LAKE MICHIGAN COASTAL AND OPEN LAKE BUOY OBSERVATIONS

STATION/POSITION TEMP    WIND        PRES    VSBY  WAVE
                 AIR SEA DIR/SP/G                  HT/PER
                 (F)     (DEG/KT/KT) (MB)    (MI)  (FT/S)
CALUMET HARBOR    79      50/  8/  8 1008.8R
MICHIGAN CITY     80     270/  6/  6   N/A
BURNS HARBOR      79     350/  3/  4 1009.8S
SAINT JOSEPH      78     220/  7/  8 1009.8
SOUTH LAKE BUOY   72 71  270/  8/ 10 1008.7          0
4 MI NW BRIDGMAN  75 76  280/  6/  8 1008.8S         1
MICHIGAN CITY     78 77  300/  4/  6   N/A           0

$$
&&




USA.gov is the U.S. government's official web portal to all federal, state and local government web resources and services.